{"data":{"norad_id":43180,"intl_designator":"2018-014A","name":"KANOPUS-V 3","alt_names":[],"object_type":"PAYLOAD","status":"ACTIVE","operator":null,"country":"CIS","launch_date":"2018-02-01","launch_site_code":"VOSTO","launch_vehicle":null,"mission":null,"orbit_class":"UNKNOWN","rcs_meters":null,"size_class":null,"mass_kg":null,"dimensions":null,"purposes":[],"wikipedia_slug":null,"has_3d_model":false,"image_url":null,"decayed_at":null,"tle_current":{"epoch":"2026-09-20T04:03:08.430912Z","epoch_age_seconds":80840,"freshness":"FRESH","line1":"1 43180U 18014A   26263.16884758  .00001545  00000+0  69883-4 0  9998","line2":"2 43180  97.3470 166.6694 0001797  89.2238 270.9205 15.22378725479177","mean_motion":15.22378725,"eccentricity":0.0001797,"inclination_deg":97.347,"raan_deg":166.6694,"arg_perigee_deg":89.2238,"mean_anomaly_deg":270.9205,"bstar":6.9883e-5,"rev_number":47917,"period_min":94.588815276567,"perigee_km":497.43214832929,"apogee_km":499.90367201401,"semimajor_km":6876.8049101717,"source":"CELESTRAK","updated_at":"2026-09-20T09:00:14.306456Z"}}}